Imperial, NE

9:52 PM MST on January 17, 2018 (GMT -0700)
Imperial Municipal

Weather History for KIML - August, 2014

Change the Weather History Date:

Thursday, August 21, 2014

  Actual Average Record
Temperature  
Mean Temperature 78 °F 73 °F  
Max Temperature 92 °F 87 °F 104 °F (1929)
Min Temperature 64 °F 59 °F 45 °F (1964)
Degree Days  
Heating Degree Days 0 0  
Month to date heating degree days 0 0  
Since 1 June heating degree days 40 36  
Cooling Degree Days 13 8  
Month to date cooling degree days 245 210  
Year to date cooling degree days 782 794  
Since 1 June cooling degree days 721 750  
Growing Degree Days 28 (Base 50)    
Moisture  
Dew Point 57 °F    
Average Humidity 56    
Maximum Humidity 87    
Minimum Humidity 24    
Precipitation  
Precipitation 0.00 in 0.07 in 0.65 in (1935)
Snow  
Snow 0.00 in - - ()
Snow Depth -    
Sea Level Pressure  
Sea Level Pressure 29.83 in    
Wind  
Wind Speed 7 mph (North)    
Max Wind Speed 18 mph    
Max Gust Speed 22 mph    
Visibility 10 miles    
Events      
T = Trace of Precipitation, MM = Missing Value Source: NWS Daily Summary

Daily Weather History Graph

Daily Weather History Graph

Search for Another Location

Airport or City:

Trip Planner

Search our weather history database for the weather conditions in past years. The results will help you decide how hot, cold, wet, or windy it might be!

Date:

Astronomy

Aug. 21, 2014 Rise Set
Actual Time 6:03 AM MDT 7:35 PM MDT
Civil Twilight 5:34 AM MDT 8:04 PM MDT
Nautical Twilight 4:59 AM MDT 8:38 PM MDT
Astronomical Twilight 4:22 AM MDT 9:15 PM MDT
Moon 2:34 AM MDT (8/21) 5:05 PM MDT (8/21)
Length of Visible Light 14h 29m
Length of Day
13h 32m
Waning Crescent, 13% of the Moon is Illuminated
Aug 21
Waning Crescent
Aug 25
New
Sep 2
First Quarter
Sep 8
Full
Sep 15
Last Quarter

Hourly Weather History & Observations

Time (MDT) Temp. Heat Index Dew Point Humidity Pressure Visibility Wind Dir Wind Speed Gust Speed Precip Events Conditions
12:53 AM 66.9 °F - 63.0 °F 87% 29.76 in 10.0 mi Calm Calm - 0.00 in   Clear
1:53 AM 66.9 °F - 63.0 °F 87% 29.75 in 10.0 mi East 3.5 mph - N/A   Clear
2:53 AM 69.1 °F - 60.1 °F 73% 29.76 in 10.0 mi WNW 4.6 mph - N/A   Clear
3:53 AM 68.0 °F - 60.1 °F 76% 29.77 in 10.0 mi NNW 6.9 mph - N/A   Clear
4:53 AM 66.9 °F - 61.0 °F 81% 29.77 in 10.0 mi West 3.5 mph - N/A   Clear
5:53 AM 64.9 °F - 61.0 °F 87% 29.79 in 10.0 mi North 4.6 mph - N/A   Clear
6:53 AM 69.1 °F - 59.0 °F 70% 29.80 in 10.0 mi NNW 9.2 mph - N/A   Clear
7:53 AM 73.0 °F - 60.1 °F 64% 29.83 in 10.0 mi NNW 10.4 mph - N/A   Clear
8:53 AM 77.0 °F - 57.0 °F 50% 29.85 in 10.0 mi NNW 12.7 mph - N/A   Clear
9:53 AM 80.1 °F 80.0 °F 54.0 °F 40% 29.85 in 10.0 mi NNW 16.1 mph - N/A   Clear
10:53 AM 84.0 °F 82.5 °F 53.1 °F 34% 29.86 in 10.0 mi NNW 12.7 mph - N/A   Clear
11:53 AM 84.9 °F 83.3 °F 54.0 °F 34% 29.86 in 10.0 mi NNW 5.8 mph - N/A   Clear
12:53 PM 88.0 °F 85.9 °F 54.0 °F 31% 29.85 in 10.0 mi NW 10.4 mph 16.1 mph N/A   Clear
1:53 PM 90.0 °F 87.7 °F 54.0 °F 29% 29.84 in 10.0 mi North 10.4 mph - N/A   Clear
2:53 PM 90.0 °F - 48.9 °F 24% 29.83 in 10.0 mi NNW 9.2 mph - N/A   Clear
3:53 PM 90.0 °F - 52.0 °F 27% 29.84 in 10.0 mi NW 9.2 mph - N/A   Clear
4:53 PM 91.0 °F - 52.0 °F 26% 29.84 in 10.0 mi NNE 6.9 mph - N/A   Clear
5:53 PM 90.0 °F - 51.1 °F 26% 29.84 in 10.0 mi NNW 5.8 mph - N/A   Clear
6:53 PM 89.1 °F - 52.0 °F 28% 29.84 in 10.0 mi Calm Calm - N/A   Clear
7:53 PM 82.9 °F 82.1 °F 55.9 °F 39% 29.85 in 10.0 mi Calm Calm - N/A   Clear
8:53 PM 75.0 °F - 59.0 °F 57% 29.88 in 10.0 mi ENE 4.6 mph - N/A   Clear
9:53 PM 70.0 °F - 60.1 °F 71% 29.89 in 10.0 mi ENE 6.9 mph - N/A   Clear
10:53 PM 71.1 °F - 63.0 °F 75% 29.88 in 10.0 mi East 4.6 mph - N/A   Clear
11:53 PM 69.1 °F - 63.0 °F 81% 29.90 in 10.0 mi East 4.6 mph - N/A   Clear